This demonstration page uses our WeatherBlox Daily Observations layout. Learn more.

Left ArrowRight Arrow

38.88101, -77.10428

Hourly Observations for June 4, 2021

Temp ( °F °C ) Dew Point ( °F °C ) Humidity (%) Winds ( mph kmh ) Pressure ( in mb ) Visibility ( mi km ) Precip ( " mm )
12:01 am 00:01 Cloudy 71 21.7 67 19.4 87 87 S 12 19 29.98 1015 10 16 N/A
12:52 am 00:52 Cloudy 71 21.7 67 19.4 87 87 SSW 12 19 29.96 1015 10 16 N/A
1:52 am 01:52 Cloudy 70 21.1 67 19.4 90 90 S 10 17 29.96 1014 10 16 N/A
2:13 am 02:13 Cloudy 70 21.1 67 19.4 90 90 SSW 12 19 29.96 1015 10 16 N/A
2:25 am 02:25 Cloudy 70 21.1 67 19.4 90 90 SSW 9 15 29.96 1015 10 16 N/A
2:52 am 02:52 Cloudy 70 21.1 67 19.4 90 90 SSW 10 17 29.95 1014 10 16 N/A
3:29 am 03:29 Cloudy 70 21.1 67 19.4 90 90 SSW 8 13 29.95 1014 10 16 N/A
3:52 am 03:52 Cloudy 70 21.1 67 19.4 90 90 SSW 9 15 29.93 1014 10 16 0.00 0.00
4:14 am 04:14 Mostly Cloudy 70 21.1 67 19.4 90 90 S 7 11 29.93 1013 10 16 N/A
4:43 am 04:43 Cloudy 70 21.1 68 20 93 93 S 5 7 29.92 1013 10 16 0.00 0.00
4:52 am 04:52 Cloudy 70 21.1 68 20 93 93 SSW 5 7 29.92 1013 10 16 0.00 0.00
5:35 am 05:35 Cloudy 70 21.1 68 20 93 93 S 6 9 29.93 1013 10 16 N/A
5:52 am 05:52 Cloudy 70 21.1 68 20 93 93 S 9 15 29.92 1013 10 16 N/A
6:52 am 06:52 Cloudy 70 21.1 68 20 93 93 SSW 8 13 29.94 1014 10 16 N/A
7:44 am 07:44 Mostly Cloudy 70 21.1 68 20 93 93 S 5 7 29.95 1014 10 16 N/A
7:52 am 07:52 Cloudy 70 21.1 68 20 93 93 S 6 9 29.95 1014 10 16 N/A
8:16 am 08:16 Mostly Cloudy 70 21.1 67 19.4 90 90 SW 7 11 29.96 1015 10 16 N/A
8:42 am 08:42 Mostly Cloudy 70 21.1 67 19.4 90 90 S 6 9 29.96 1015 10 16 N/A
8:52 am 08:52 Mostly Cloudy 70 21.1 67 19.4 90 90 SW 7 11 29.96 1015 10 16 N/A
9:52 am 09:52 Mostly Cloudy 71 21.7 67 19.4 87 87 SSW 7 11 29.96 1015 10 16 N/A
9:59 am 09:59 Mostly Cloudy 74 23.3 67 19.4 79 79 SW 8 13 29.96 1014 10 16 N/A
10:52 am 10:52 Mostly Cloudy 76 24.4 68 20 77 77 S 7 11 29.96 1014 10 16 N/A
11:50 am 11:50 Mostly Cloudy 79 26 68 20 70 70 SSE 8 13 29.95 1014 10 16 N/A
11:52 am 11:52 Mostly Cloudy 78 25.6 68 20 71 71 SSE 8 13 29.95 1014 10 16 N/A
12:48 pm 12:48 Mostly Cloudy with Nearby Thunderstorms 79 26 64 18 61 61 undefined N/A 29.94 1014 10 16 N/A
12:52 pm 12:52 Mostly Cloudy with Thunderstorms 77 25 63 17.2 62 62 undefined N/A 29.94 1014 9 14 0.00 0.00
1:42 pm 13:42 Sunny 77 25 67 19.4 71 71 S 9 15 29.94 1014 10 16 0.05 1.27
1:52 pm 13:52 Mostly Cloudy 75 23.9 68 20 79 79 S 13 20 29.93 1014 10 16 0.05 1.27
2:52 pm 14:52 Mostly Cloudy 76 24.4 66 18.9 72 72 SSE 8 13 29.91 1013 10 16 N/A
3:52 pm 15:52 Mostly Cloudy 82 27.8 65 18.3 56 56 SSE 8 13 29.91 1013 10 16 N/A
4:52 pm 16:52 Mostly Cloudy 83 28.3 65 18.3 55 55 VRB 3 6 29.90 1013 10 16 N/A
5:52 pm 17:52 Partly Cloudy 85 29.4 56 13.3 37 37 NW 9 15 29.90 1013 10 16 N/A
6:52 pm 18:52 Partly Cloudy 84 28.9 57 13.9 40 40 N 6 9 29.91 1013 10 16 N/A
7:52 pm 19:52 Mostly Sunny 83 28.3 56 13.3 40 40 NW 8 13 29.92 1013 10 16 N/A
8:52 pm 20:52 Mostly Clear 77 25 66 18.9 69 69 S 7 11 29.94 1014 10 16 N/A
9:52 pm 21:52 Mostly Clear 74 23.3 67 19.4 79 79 S 7 11 29.98 1015 10 16 N/A
10:52 pm 22:52 Mostly Clear 73 22.8 68 20 84 84 S 6 9 30.00 1016 10 16 N/A
11:52 pm 23:52 Mostly Clear 73 22.8 69 20.6 87 87 SW 7 11 29.99 1016 10 16 N/A

Powered by AerisWeather